This demonstration page uses our WeatherBlox Daily Observations layout. Learn more.

41.55636, -103.73856

Hourly Observations for April 12, 2015

Temp ( °F °C ) Dew Point ( °F °C ) Humidity (%) Winds ( mph kmh ) Pressure ( in mb ) Visibility ( mi km ) Precip ( " mm )
12:53 am 00:53 Clear 44 6.7 32 0 63 63 NNE 9 15 29.62 1003 10 16.0934 0 0
1:53 am 01:53 Clear 42 5.6 32 0 68 68 NNE 5 7 29.61 1003 10 16.0934 0 0
2:53 am 02:53 Clear 37 2.8 31 -0.6 79 79 NW 7 11 29.62 1003 10 16.0934 0 0
3:53 am 03:53 Clear 38 3.3 30 -1.1 73 73 Calm 29.63 1003 10 16.0934 0 0
4:53 am 04:53 Clear 36 2.2 29 -1.7 76 76 N 7 11 29.63 1004 10 16.0934 0 0
5:53 am 05:53 Clear 35 1.7 29 -1.7 78 78 NW 6 9 29.65 1004 10 16.0934 0 0
6:53 am 06:53 Sunny 44 6.7 32 0 63 63 NNW 7 11 29.66 1005 10 16.0934 0 0
7:53 am 07:53 Sunny 48 8.9 31 -0.6 52 52 W 10 17 29.69 1005 10 16.0934 0 0
8:53 am 08:53 Sunny 51 10.6 31 -0.6 46 46 WNW 12 19 29.71 1006 10 16.0934 0 0
9:53 am 09:53 Sunny 57 13.9 31 -0.6 37 37 W 14 22 29.71 1006 10 16.0934 0 0
10:53 am 10:53 Sunny 61 16.1 30 -1.1 31 31 WNW 29 46 29.72 1006 10 16.0934 0 0
11:53 am 11:53 Sunny 64 17.8 30 -1.1 28 28 W 26 43 29.75 1008 10 16.0934 0 0
12:37 pm 12:37 Mostly Sunny 57 14 37 3 48 48 N 31 50 29.77 1008 10 16.0934 0 0
12:53 pm 12:53 Mostly Sunny 58 14.4 38 3.3 48 48 NNW 31 50 29.85 1011 9 14.48406 0 0
1:53 pm 13:53 Sunny 53 11.7 34 1.1 48 48 NNW 25 41 29.92 1013 10 16.0934 0 0
2:53 pm 14:53 Sunny 57 13.9 32 0 39 39 NNW 18 30 29.95 1014 10 16.0934 0 0
3:53 pm 15:53 Sunny 57 13.9 29 -1.7 34 34 NNW 15 24 29.93 1014 10 16.0934 0 0
4:53 pm 16:53 Sunny 57 13.9 28 -2.2 33 33 NNW 17 28 29.94 1014 10 16.0934 0 0
5:53 pm 17:53 Sunny 55 12.8 28 -2.2 35 35 NNW 16 26 29.96 1015 10 16.0934 0 0
6:53 pm 18:53 Sunny 52 11.1 26 -3.3 37 37 N 12 19 29.96 1015 10 16.0934 0 0
7:53 pm 19:53 Clear 43 6.1 26 -3.3 51 51 NNE 7 11 29.98 1015 10 16.0934 0 0
8:53 pm 20:53 Clear 41 5 25 -3.9 53 53 NNE 6 9 30.02 1017 10 16.0934 0 0
9:53 pm 21:53 Clear 37 2.8 26 -3.3 65 65 S 6 9 30.04 1017 10 16.0934 0 0
10:53 pm 22:53 Clear 33 0.6 25 -3.9 72 72 NNE 5 7 30.06 1018 10 16.0934 0 0
11:53 pm 23:53 Clear 33 0.6 25 -3.9 72 72 NE 5 7 30.06 1018 10 16.0934 0 0

Powered by AerisWeather